This is the latest recevied weather packets stored in our database for station/object W4MLN-1. If no packets are shown the sender has not sent any weather packets the latest 10 day(s).
| Time | Temp. | Humidity | Pressure | Rain* | Wind** | Luminosity | Snow |
|---|---|---|---|---|---|---|---|
| 1777951820 | 12.78° C | 65% | 1014.4 hPa | 0 mm | - | 0 W/m² | - |
| 1777951521 | 12.22° C | 68% | 1014.5 hPa | 0 mm | - | 0 W/m² | - |
| 1777951222 | 12.78° C | 70% | 1014.5 hPa | 0 mm | - | 0 W/m² | - |
| 1777950921 | 13.33° C | 68% | 1014.5 hPa | 0 mm | - | 0 W/m² | - |
| 1777950622 | 13.33° C | 62% | 1014.5 hPa | 0 mm | - | 0 W/m² | - |
| 1777950321 | 13.33° C | 59% | 1014.6 hPa | 0 mm | - | 0 W/m² | - |
| 1777950022 | 13.33° C | 60% | 1014.5 hPa | 0 mm | - | 0 W/m² | - |
| 1777949721 | 13.33° C | 62% | 1014.7 hPa | 0 mm | - | 0 W/m² | - |
| 1777949421 | 13.33° C | 62% | 1014.7 hPa | 0 mm | - | 0 W/m² | - |
| 1777949122 | 13.33° C | 61% | 1014.8 hPa | 0 mm | - | 0 W/m² | - |
| 1777948819 | 13.33° C | 61% | 1014.8 hPa | 0 mm | - | 0 W/m² | - |
| 1777948519 | 13.33° C | 65% | 1014.8 hPa | 0 mm | - | 0 W/m² | - |
| 1777948219 | 13.33° C | 67% | 1014.8 hPa | 0 mm | - | 0 W/m² | - |
| 1777947918 | 13.89° C | 62% | 1014.7 hPa | 0 mm | - | 0 W/m² | - |
| 1777947619 | 13.89° C | 62% | 1014.8 hPa | 0 mm | - | 0 W/m² | - |
| 1777947319 | 13.89° C | 59% | 1014.7 hPa | 0 mm | - | 0 W/m² | - |
| 1777947019 | 14.44° C | 58% | 1014.7 hPa | 0 mm | - | 0 W/m² | - |
| 1777946720 | 13.89° C | 61% | 1014.7 hPa | 0 mm | - | 0 W/m² | - |
| 1777946419 | 14.44° C | 59% | 1014.8 hPa | 0 mm | - | 0 W/m² | - |
| 1777946120 | 14.44° C | 63% | 1014.7 hPa | 0 mm | - | 0 W/m² | - |
| 1777945816 | 15° C | 61% | 1014.7 hPa | 0 mm | - | 0 W/m² | - |
| 1777945517 | 15.56° C | 57% | 1014.7 hPa | 0 mm | - | 0 W/m² | - |
| 1777945213 | 15.56° C | 56% | 1014.7 hPa | 0 mm | - | 0 W/m² | - |
| 1777944911 | 16.11° C | 54% | 1014.6 hPa | 0 mm | - | 0 W/m² | - |
| 1777944611 | 16.67° C | 54% | 1014.6 hPa | 0 mm | - | 0 W/m² | - |
* Rain latest hour (hover to see other rain measurements)
** Current wind speed in m/s (hover to see current wind gust speed)